Theta_e
317 316 316 315 314 313 313 312 312 311 309 326 325 329 317 314 312 321 325 325 321 315 309 312 308 307 308 309 308 309 308 307 307 307 308 307 308 308 306 306 305 305 305 305 304 305 302 304 301 303 304 305 307 308 309 309 309 309 307 308 310 311 304 301 302 307 308 309 312 311 311 310 308 309 309 307 304 306 306 305 307 305 307 304 304 303 310
317 316 316 315 313 312 313 312 312 311 309 317 324 325 317 316 315 316 322 324 321 311 304 303 306 306 308 308 307 308 308 308 307 306 307 307 306 306 306 306 307 305 308 306 303 306 300 303 304 303 305 304 309 308 309 309 308 307 307 306 309 302 306 303 299 299 302 305 307 307 310 309 307 307 308 309 308 308 308 308 310 303 304 306 304 298 310
317 316 316 314 313 312 312 312 311 311 311 312 322 322 322 318 317 317 317 321 318 309 311 307 306 305 305 305 304 306 306 308 308 308 307 308 308 307 305 307 307 306 308 305 307 306 304 302 305 304 305 305 308 309 309 309 309 310 314 317 313 305 305 303 297 294 292 293 295 298 301 303 306 309 309 309 308 308 306 301 304 298 306 308 304 305 317
317 317 316 314 313 313 312 312 312 311 310 308 321 327 319 313 306 310 313 315 314 313 315 312 309 306 306 304 305 306 304 306 308 309 308 309 309 308 308 308 308 306 305 304 303 304 306 303 302 304 304 305 307 308 309 308 309 313 316 314 311 306 307 306 304 301 298 300 304 306 307 306 303 305 306 307 309 309 309 308 305 300 305 305 308 309 316
318 317 316 315 314 312 312 312 311 311 310 308 319 325 320 317 308 308 306 312 311 311 311 309 309 306 308 305 305 303 305 305 306 306 305 308 308 307 307 306 304 304 304 303 303 304 303 306 304 303 303 305 307 308 308 309 310 317 313 315 310 307 303 305 306 305 306 305 305 306 307 305 306 305 305 306 308 309 308 305 303 312 305 300 309 314 309
318 318 317 315 313 313 313 312 311 310 309 306 320 321 319 308 313 314 316 307 304 306 306 310 308 309 308 306 306 304 304 304 303 306 306 308 308 305 307 306 306 306 304 305 301 302 303 303 301 304 305 305 306 305 308 307 312 311 309 311 308 305 301 304 304 304 305 306 306 307 307 306 306 307 307 306 308 309 306 306 308 309 305 303 310 314 312
319 319 318 316 314 314 314 312 310 309 308 311 328 324 318 316 317 314 316 308 310 310 309 309 309 307 307 307 305 303 304 303 305 305 306 306 306 306 303 303 305 306 307 305 304 306 301 300 306 306 304 304 305 303 305 307 310 309 308 310 312 308 302 304 306 304 305 306 306 307 306 306 306 306 307 308 308 308 308 308 309 309 309 310 313 313 313
319 319 318 317 315 314 314 312 311 310 307 320 330 324 320 312 319 310 313 313 312 311 310 309 308 306 307 305 305 305 304 303 305 307 304 304 305 306 304 305 305 307 307 308 305 307 309 307 305 306 306 304 306 305 304 305 308 308 306 307 311 305 301 304 304 303 303 305 306 306 306 306 305 306 307 308 308 308 309 309 310 311 311 313 312 312 314
319 319 318 317 315 314 314 313 311 310 309 329 325 324 325 325 329 327 318 307 310 311 309 307 308 306 306 305 306 305 305 305 307 306 308 306 306 305 305 306 306 306 307 307 306 309 309 309 308 308 307 305 308 305 307 307 304 306 305 307 308 306 303 306 304 300 300 303 304 305 306 306 305 305 306 306 307 306 308 307 310 310 310 312 313 311 313
319 319 318 317 315 314 314 313 312 310 310 328 327 321 325 329 329 328 321 311 312 307 309 309 307 303 307 307 306 306 306 307 307 305 306 307 308 308 307 308 307 307 306 306 308 310 310 310 310 310 311 311 310 310 309 308 306 305 305 308 304 306 304 303 302 298 298 303 304 303 304 303 301 302 307 309 309 310 311 314 316 314 314 311 309 311 321
319 319 318 317 316 315 314 314 313 310 316 324 326 323 322 322 324 326 319 308 309 308 309 307 306 307 309 307 308 308 307 307 307 304 305 307 307 308 308 307 305 308 307 309 312 313 312 312 312 312 311 310 309 310 309 309 309 308 307 306 306 307 304 302 305 298 299 301 302 303 300 293 295 306 312 310 308 310 309 309 312 314 316 315 318 320 323
319 319 318 317 315 314 314 314 313 311 311 320 325 326 325 328 328 328 319 306 307 310 308 306 306 307 307 308 308 306 306 306 307 308 306 306 307 307 308 307 308 306 311 315 313 313 313 313 311 313 310 309 309 309 309 308 309 312 310 307 306 305 305 302 305 300 297 301 301 297 292 294 307 311 311 313 312 312 309 313 314 314 316 317 316 321 323
318 319 318 317 316 314 314 314 313 312 311 316 321 325 327 328 326 326 322 313 308 308 305 307 310 309 309 309 308 308 309 308 309 309 308 308 306 308 309 309 307 310 314 312 311 310 306 305 307 307 307 308 308 308 308 307 308 309 309 310 306 305 304 305 302 302 301 298 297 289 293 306 308 311 312 313 314 312 311 310 313 316 316 318 316 319 320
318 319 318 317 316 314 314 314 314 313 311 312 318 326 329 326 323 324 322 314 308 311 309 309 309 308 308 308 309 309 309 309 310 310 308 310 309 308 309 312 312 313 312 312 310 309 305 306 302 301 302 305 305 303 305 307 308 307 307 309 309 307 307 305 301 305 296 298 296 295 305 304 306 306 310 311 309 310 309 305 311 313 315 317 318 319 321
318 318 318 316 315 314 314 314 314 314 312 310 318 324 329 326 326 325 327 322 309 312 312 305 308 308 308 309 309 308 308 308 307 308 311 310 311 311 313 314 315 314 312 311 307 308 306 305 299 297 299 298 294 298 305 302 307 308 308 308 310 311 304 307 301 301 302 298 295 297 296 294 300 309 313 314 314 316 317 314 310 315 315 319 320 319 320
317 318 318 316 315 314 313 314 314 314 313 310 319 324 332 332 330 332 329 323 318 307 309 314 312 310 309 310 310 309 309 308 310 308 308 311 311 311 314 316 316 315 312 308 312 309 305 301 298 297 295 297 301 302 301 303 302 307 308 308 307 308 309 307 302 299 299 298 295 294 292 297 306 309 312 314 315 315 317 310 305 312 316 318 319 319 322
317 318 318 317 315 313 313 314 314 313 313 310 314 320 330 336 328 327 326 326 317 310 316 313 314 313 311 311 309 310 311 309 310 305 307 309 310 311 312 315 317 314 312 310 307 305 303 301 302 302 303 305 299 298 305 301 302 304 307 306 305 305 305 305 302 300 299 298 295 293 302 300 308 310 312 313 315 315 313 298 299 312 316 319 319 319 319
316 317 318 317 315 314 314 314 314 314 313 312 314 319 326 332 334 334 331 325 314 314 315 315 312 311 310 312 311 313 312 311 310 310 310 312 310 310 312 311 312 313 312 308 309 303 304 303 299 298 299 304 305 302 295 303 299 302 303 304 303 303 303 303 300 300 299 299 297 298 301 309 310 311 313 315 313 311 301 295 304 315 318 320 320 320 321
316 317 318 317 315 314 313 313 314 314 313 310 316 323 330 333 334 334 331 325 316 311 315 317 318 315 316 317 315 314 314 312 313 308 308 307 310 311 309 312 313 309 311 308 307 304 302 303 306 303 301 303 303 298 306 300 301 306 304 300 300 300 301 302 302 298 298 300 298 296 304 309 311 313 314 315 308 299 299 309 318 318 318 320 321 321 322
315 316 317 317 315 314 313 313 313 314 314 311 313 317 323 329 334 334 328 321 319 316 314 316 316 313 315 315 313 312 313 311 311 308 308 306 315 313 308 305 310 310 309 309 304 307 303 303 303 304 301 304 304 307 301 305 308 306 305 306 301 303 300 299 301 304 303 301 297 294 290 308 313 311 312 315 306 306 313 317 318 319 319 320 321 323 322
315 316 317 317 316 314 313 313 313 313 314 314 311 319 326 336 331 337 333 331 326 313 313 318 318 317 317 315 315 314 312 310 310 308 314 313 317 311 300 305 308 308 308 307 304 302 304 304 305 303 307 305 307 303 300 305 304 310 306 305 304 309 300 300 303 304 298 298 295 294 304 311 314 313 306 312 314 317 319 319 316 318 319 320 321 322 323
315 316 316 317 316 315 314 313 313 313 314 314 312 322 326 329 332 335 335 333 330 318 318 321 321 319 319 319 318 317 316 315 316 315 314 313 315 312 312 314 313 312 314 313 307 306 305 306 307 303 301 303 306 300 308 300 298 305 309 306 297 311 306 308 300 309 304 302 303 310 313 315 315 316 316 317 319 321 320 319 318 317 319 321 321 321 323
314 315 316 317 316 315 314 313 313 313 313 314 315 322 325 327 328 334 334 332 327 322 322 321 320 318 318 319 320 322 322 322 321 320 319 316 311 310 312 312 312 314 316 314 312 308 309 306 305 308 306 307 306 304 305 301 300 304 303 308 309 312 312 313 308 307 312 312 312 314 316 315 316 317 318 317 319 321 320 319 317 319 321 322 321 321 322
314 315 316 317 316 315 314 313 313 313 313 314 314 320 324 327 332 331 331 330 317 313 317 320 314 312 315 314 318 321 321 320 320 321 323 322 313 311 311 316 314 315 316 318 318 314 310 310 309 308 303 310 307 301 299 300 302 307 306 306 308 312 310 309 304 311 303 299 313 314 314 315 315 316 318 319 319 320 320 320 319 319 321 322 323 322 322
315 315 316 316 316 314 313 313 313 313 313 313 315 321 325 328 333 331 328 314 314 311 307 310 312 318 319 320 321 320 320 323 323 322 318 321 320 314 313 320 323 319 316 317 317 315 311 307 307 303 301 310 307 301 308 302 303 308 301 307 308 308 313 305 306 308 304 307 312 314 314 315 315 315 316 315 317 319 321 321 322 321 322 322 322 322 322
315 315 316 316 315 314 313 312 313 313 313 313 314 320 325 328 332 333 332 330 327 317 308 307 312 319 320 318 317 318 322 322 321 320 320 320 319 321 319 320 319 322 320 321 317 315 312 309 310 309 304 308 311 303 306 308 307 310 304 307 311 310 310 302 310 306 309 312 312 314 314 315 316 316 317 317 317 318 320 320 321 321 320 321 322 324 323
315 315 315 315 314 313 312 312 313 313 314 313 317 323 327 331 332 329 328 327 320 311 312 310 313 315 317 316 318 321 320 322 321 320 319 319 318 319 320 320 319 319 318 315 315 315 310 309 307 308 308 311 312 310 310 307 306 304 303 309 313 308 302 307 306 301 300 303 310 312 306 307 311 313 315 316 317 318 318 319 320 318 320 320 321 320 324
314 315 315 315 314 313 312 312 313 314 313 313 318 325 331 329 330 329 329 330 326 314 311 312 310 315 319 316 319 320 320 322 321 319 319 319 320 319 318 318 320 317 315 314 309 309 308 306 307 309 309 311 304 305 308 310 309 304 303 308 311 306 309 307 303 302 301 309 314 314 313 311 311 312 315 315 316 317 315 317 317 319 320 319 320 320 319
314 314 315 315 314 313 312 313 313 314 313 313 323 327 330 331 333 329 326 331 332 327 322 317 318 313 308 313 320 319 321 322 321 320 319 319 319 319 319 319 318 315 315 313 312 310 309 311 313 311 310 318 307 305 306 301 301 300 306 311 312 313 315 312 312 310 311 313 313 315 313 310 313 315 315 316 317 316 314 315 318 318 320 319 320 322 320
314 314 314 314 314 314 313 313 313 314 314 320 325 325 319 319 328 329 325 328 331 330 318 311 306 312 319 317 316 319 319 321 321 320 320 319 319 320 319 320 316 317 317 315 314 310 311 310 309 312 314 317 310 308 302 303 301 307 313 313 312 314 314 312 315 310 310 316 316 316 315 314 315 316 316 316 317 316 314 315 316 317 319 318 320 320 322
314 314 314 314 314 313 313 313 314 313 314 324 323 316 313 310 321 326 321 327 332 329 324 316 310 316 315 320 319 318 319 320 321 320 319 319 318 318 318 319 316 320 315 312 312 310 310 309 310 312 312 314 311 307 303 302 300 306 311 312 314 310 314 315 316 316 314 316 316 317 316 315 316 316 315 316 316 317 315 316 317 318 319 319 320 320 320
314 314 314 314 313 313 313 313 314 314 320 324 321 319 318 317 323 323 322 324 333 326 316 310 311 310 313 314 320 322 320 320 320 319 320 321 319 320 319 320 317 317 316 313 313 310 310 312 311 311 310 312 307 306 306 302 299 303 312 313 313 314 315 315 315 316 316 317 315 313 312 313 316 313 312 315 315 316 316 316 318 319 318 319 320 321 320
313 313 313 314 313 314 314 314 314 315 322 320 313 313 314 313 312 316 322 332 332 324 321 316 309 312 310 314 319 320 321 321 319 320 318 321 318 319 316 318 316 314 312 314 308 308 311 311 312 307 313 315 308 307 304 302 305 312 313 313 314 314 314 315 316 316 316 316 315 311 310 310 313 315 316 316 316 316 316 316 316 318 318 317 318 318 319
313 314 313 313 314 314 314 314 313 312 313 317 320 322 327 314 320 313 325 331 329 323 322 315 310 308 309 318 311 318 321 315 316 318 313 320 323 317 317 314 316 313 313 310 313 309 310 310 307 310 313 308 309 305 298 305 312 312 312 312 314 313 314 314 313 313 314 315 315 316 315 316 316 317 316 315 315 316 317 316 315 313 315 316 316 317 319
313 313 313 314 314 314 313 313 322 322 321 320 322 328 325 309 311 316 324 331 316 313 313 315 316 309 308 310 308 315 322 316 314 316 312 318 320 318 317 312 312 306 311 315 309 309 308 308 313 307 303 311 304 296 300 306 309 311 311 312 313 313 313 311 311 312 313 314 314 314 314 315 314 312 312 313 313 313 313 314 314 313 312 312 313 314 316
313 313 313 313 313 313 320 319 323 323 320 318 322 323 313 320 321 334 335 336 328 316 309 311 310 309 310 304 304 315 321 314 319 319 319 320 315 320 318 314 308 311 317 310 307 310 307 314 306 301 310 301 299 301 305 309 310 311 311 311 313 313 312 312 311 311 312 313 313 313 313 312 312 312 312 313 312 313 313 312 314 313 312 312 313 314 315
313 313 313 313 317 321 320 320 324 323 321 324 323 321 317 323 330 332 330 327 332 329 316 313 308 309 310 309 314 318 316 309 317 315 316 313 311 316 314 311 306 312 310 308 307 306 311 316 307 303 304 298 305 310 312 312 312 312 312 313 314 315 314 314 313 313 311 310 311 311 311 310 311 311 310 310 311 311 310 310 311 311 310 310 312 312 314
313 312 316 320 320 316 314 318 321 324 320 318 319 321 322 320 316 317 317 314 320 318 315 313 309 312 315 311 308 317 314 312 317 311 312 316 312 311 314 310 311 309 302 306 310 316 315 310 306 302 303 309 312 314 314 314 314 315 315 314 315 315 315 314 313 311 309 308 308 308 309 308 308 309 309 309 309 309 309 310 310 311 311 310 311 312 312
311 318 320 322 319 314 313 321 325 316 324 324 324 317 313 318 316 309 310 313 316 309 312 311 308 313 313 310 313 318 314 312 311 312 307 316 309 306 312 303 311 308 301 304 309 315 304 305 307 305 302 307 308 312 315 315 315 315 316 316 316 316 316 314 314 312 310 309 309 310 310 308 308 308 309 309 310 310 311 310 310 310 310 310 311 312 310
319 317 317 317 318 320 323 322 317 321 324 317 319 316 309 313 308 302 314 306 305 310 313 307 312 315 314 310 311 312 319 313 308 307 308 312 315 306 311 309 312 306 298 301 305 312 303 297 304 302 301 305 307 313 313 314 315 316 316 317 317 317 317 316 315 315 314 313 313 312 313 311 311 310 310 310 309 309 309 310 311 311 311 310 311 310 310
320 319 319 315 323 323 323 325 325 322 317 313 312 313 310 302 309 313 308 305 303 307 313 310 313 311 314 315 314 310 318 319 321 320 315 309 316 313 307 304 313 304 301 299 311 309 307 302 300 297 301 306 309 312 314 314 314 316 317 318 318 318 317 316 315 315 314 312 310 310 311 311 310 311 310 310 309 309 309 309 310 310 310 310 310 310 312
318 318 321 323 325 326 323 321 320 316 314 315 306 299 304 307 311 309 310 302 302 309 310 311 309 310 310 313 313 317 317 320 319 315 311 306 311 308 306 307 308 302 297 307 312 306 304 294 295 298 304 309 313 315 315 314 315 316 318 319 318 318 316 315 314 314 313 311 310 310 310 309 310 310 311 310 310 309 309 309 309 310 310 311 311 311 311
308 310 317 322 320 317 318 308 314 312 299 298 297 295 303 298 304 304 306 309 317 313 313 317 318 321 320 320 318 320 318 321 313 312 309 306 312 310 307 304 303 296 303 312 306 303 298 294 296 301 307 310 314 315 315 315 317 318 319 319 319 318 316 315 313 312 312 311 310 310 310 310 309 310 311 310 309 309 310 310 310 310 311 310 310 310 310
323 323 318 318 313 314 314 295 313 307 298 300 296 291 298 299 303 306 305 308 310 310 316 310 312 311 309 315 314 314 315 315 314 315 312 314 309 307 304 297 300 309 312 305 303 298 299 303 304 308 312 313 314 316 315 316 318 318 318 318 317 316 315 314 314 312 311 311 310 310 310 309 309 309 309 310 310 309 309 310 311 311 311 311 311 311 312
317 314 312 308 302 308 299 291 311 302 293 298 300 301 302 298 304 304 306 315 314 312 316 316 316 312 311 315 316 317 312 310 315 308 307 310 306 307 302 300 306 308 303 300 300 301 302 301 308 310 313 313 314 315 317 318 318 317 317 316 315 315 314 313 312 311 311 309 309 309 308 309 309 309 309 310 310 311 309 309 310 309 309 309 309 310 311
313 305 302 296 290 297 298 293 296 294 302 307 303 304 306 308 310 310 315 317 315 316 314 316 316 314 310 315 309 311 312 313 308 309 310 309 303 300 308 311 309 301 301 301 297 295 298 303 306 307 310 312 311 316 318 319 319 318 316 313 314 313 313 312 312 310 310 309 309 308 308 309 309 308 308 309 309 309 309 309 310 309 309 308 307 308 309
313 314 306 301 294 298 306 295 298 302 308 308 309 311 311 313 315 316 317 317 315 316 317 319 318 315 311 311 312 311 314 316 307 310 310 303 302 306 308 304 299 300 295 294 298 300 303 305 306 311 313 316 317 317 318 319 317 316 315 315 313 312 312 311 310 309 309 309 308 308 308 308 309 309 308 307 308 308 308 308 309 310 309 307 309 309 309
301 309 310 294 291 297 297 302 307 310 311 312 312 313 316 316 314 313 316 317 319 318 317 316 313 313 309 317 313 309 310 314 308 309 309 306 308 304 297 299 299 301 302 300 299 303 306 307 309 313 315 317 317 317 317 317 316 315 315 314 313 311 310 309 309 309 310 309 308 308 308 309 308 308 307 307 307 307 308 308 308 309 309 309 308 308 308
315 303 298 297 303 303 303 309 307 305 308 310 312 314 313 311 312 315 319 320 318 318 319 315 315 312 308 312 309 307 305 311 300 300 308 306 301 294 295 293 297 296 304 304 304 308 307 309 313 315 316 315 316 316 317 316 316 315 313 313 312 311 311 310 310 310 309 308 308 308 308 309 309 308 307 307 306 306 308 308 308 308 308 308 307 307 307
304 302 308 304 304 304 306 308 306 304 309 310 310 311 313 312 313 316 320 317 319 319 318 318 316 309 309 311 301 306 303 309 305 303 304 301 301 302 301 296 299 300 301 305 306 307 312 313 315 316 316 316 317 316 315 314 315 314 313 312 311 310 309 308 309 309 308 308 308 308 309 309 308 307 307 307 307 309 308 308 308 308 308 308 308 307 307
314 309 306 312 306 307 305 300 302 302 305 307 310 311 312 312 314 317 320 318 320 317 314 309 312 307 301 299 298 295 301 309 307 303 303 301 306 303 300 298 301 304 305 309 310 310 315 314 313 314 316 316 316 315 315 315 314 313 312 311 310 309 309 308 308 307 307 308 309 307 308 308 309 309 309 309 308 308 307 307 308 307 307 308 308 308 308
301 298 302 307 310 309 308 308 307 306 307 310 310 314 315 314 316 319 321 319 317 311 308 311 308 303 297 296 303 307 311 306 302 302 299 304 307 302 300 303 305 306 306 307 310 313 314 314 316 315 315 314 314 314 314 314 312 311 310 310 309 308 307 307 307 308 308 308 308 309 309 309 309 309 309 308 308 307 305 304 306 308 309 309 309 309 308
Wind_Speed
20 20 20 20 21 21 21 21 21 21 24 9 7 7 7 9 1 6 4 5 7 8 8 0 7 1 5 2 4 5 7 6 3 7 1 5 0 1 3 4 3 0 5 4 4 4 1 4 1 3 8 7 6 5 3 3 6 6 5 4 3 3 7 7 10 10 5 5 5 10 10 8 11 11 12 12 14 11 9 9 7 8 8 10 9 10 3
20 20 20 21 21 21 21 20 20 19 16 7 8 6 8 7 3 8 5 5 6 10 6 5 3 4 3 4 7 3 6 5 4 4 4 6 2 3 2 4 6 5 4 4 3 3 2 2 3 4 2 7 3 3 3 3 4 5 8 8 8 7 5 9 8 7 7 8 9 8 9 9 9 10 10 12 13 14 12 11 7 10 10 11 9 12 4
20 20 20 21 21 22 22 21 19 19 15 8 5 6 7 4 2 2 7 7 9 8 4 4 3 4 6 6 8 9 6 3 5 6 5 3 3 5 3 6 2 2 4 2 2 2 6 4 1 3 2 5 0 5 4 4 3 2 10 11 7 6 3 7 8 10 10 10 9 8 11 12 10 11 9 14 17 15 12 14 12 11 7 10 10 6 7
19 20 20 21 22 23 23 22 20 18 17 12 5 7 7 6 5 4 6 8 8 6 5 6 2 4 4 5 4 6 4 6 4 8 4 6 2 3 2 2 5 2 5 3 5 5 1 6 4 3 2 3 2 4 2 1 7 6 5 6 7 5 4 7 7 9 8 4 7 9 10 7 13 15 18 16 18 12 12 10 10 9 6 10 8 7 6
19 20 20 21 22 23 24 24 23 19 16 11 5 6 7 6 6 6 6 5 7 5 6 4 2 3 2 0 2 3 4 4 7 1 3 3 6 1 4 2 5 2 6 5 4 3 3 2 2 5 6 2 0 1 6 2 5 3 5 7 7 5 7 5 7 10 10 3 6 9 9 13 14 16 16 14 11 10 14 15 11 6 8 10 2 9 7
19 20 21 22 22 23 24 25 25 23 18 12 5 6 6 7 1 3 4 5 2 4 6 4 4 8 5 4 4 2 3 2 1 7 2 4 3 7 6 2 1 0 5 5 5 1 5 3 5 5 5 2 5 5 5 4 7 9 8 9 5 6 6 6 8 4 6 8 10 11 10 11 8 10 7 11 9 12 15 14 13 13 10 9 4 7 6
18 19 20 22 22 23 24 25 27 26 25 12 5 5 4 5 3 2 3 6 4 4 2 3 1 6 3 4 5 3 5 4 4 7 2 0 1 3 0 2 2 2 3 5 2 3 5 2 2 3 3 6 4 5 5 7 6 6 4 1 4 3 7 6 4 7 8 7 9 8 11 7 8 12 7 7 13 13 12 13 14 15 9 7 8 4 7
18 18 19 22 22 22 23 25 27 27 30 13 6 1 5 3 6 2 6 5 4 3 5 6 5 4 4 6 3 4 1 1 2 4 5 2 3 1 2 2 2 2 1 2 2 5 8 7 3 3 4 3 6 2 4 5 4 7 3 5 6 7 2 6 8 9 8 6 5 5 8 8 11 8 10 10 10 13 12 9 10 8 10 7 8 11 5
17 17 18 20 20 21 22 24 25 29 26 6 5 2 6 6 4 3 6 7 3 4 5 5 5 3 6 6 5 6 1 3 4 5 3 5 5 2 3 3 1 3 2 2 2 1 2 3 3 1 4 7 5 6 5 4 8 4 6 6 3 5 5 3 8 8 9 7 8 7 7 11 10 9 3 4 8 10 4 4 8 8 8 9 5 8 2
17 16 17 19 19 20 21 21 24 26 28 7 7 6 8 7 2 4 5 5 3 7 3 4 4 4 3 4 6 5 5 2 4 4 2 1 3 5 4 1 7 5 4 4 5 6 6 6 4 4 5 4 4 3 4 4 5 6 3 3 7 5 6 6 5 9 7 8 9 7 9 8 10 4 8 6 9 6 6 11 9 9 10 7 6 1 6
19 16 16 18 18 19 19 20 22 23 17 9 8 7 8 8 7 6 5 7 5 8 6 5 5 4 2 2 3 4 4 2 3 8 5 4 5 2 1 3 6 2 4 5 3 4 5 5 5 3 5 5 6 3 3 5 4 6 6 4 3 4 7 6 3 6 6 9 11 9 8 9 2 1 1 4 5 9 4 4 7 8 10 7 8 1 2
20 16 15 17 18 18 19 18 19 18 16 9 7 7 7 8 6 6 5 8 6 6 6 3 2 5 8 5 2 3 4 3 5 4 1 4 5 1 3 2 5 1 6 2 4 2 3 4 7 3 8 5 6 6 7 6 3 3 6 6 5 5 4 5 2 6 7 6 7 9 11 4 9 1 6 4 4 7 4 10 7 5 7 8 11 15 10
20 17 15 16 18 18 18 18 17 17 17 12 8 6 7 8 6 5 6 6 6 5 6 4 3 4 3 4 4 5 7 3 2 4 3 2 3 2 4 4 2 7 2 4 2 6 6 6 4 7 4 6 7 6 6 4 5 2 5 2 4 6 4 3 7 6 5 6 4 8 3 6 3 7 8 9 6 8 7 5 11 10 8 8 6 4 6
20 20 16 15 17 17 18 17 17 18 17 15 8 7 6 8 7 6 4 5 5 5 2 3 6 4 5 5 4 5 3 3 4 2 4 2 2 4 4 3 4 2 3 1 4 3 6 4 6 5 6 5 5 6 8 4 2 6 2 2 3 5 6 4 7 2 8 5 8 6 5 5 4 2 7 8 7 8 7 3 6 11 11 9 7 7 7
19 19 15 15 17 17 18 18 18 18 19 18 9 8 5 6 6 5 5 5 4 5 2 4 2 4 3 5 4 4 4 3 5 5 4 2 3 3 5 2 1 3 1 5 4 5 6 4 5 6 6 5 6 5 5 7 5 5 5 4 6 2 7 5 4 4 5 8 8 7 6 7 2 7 5 6 5 5 2 5 4 12 14 12 9 7 9
18 19 16 17 18 18 19 19 19 16 17 20 9 7 4 5 6 5 5 5 5 5 3 2 1 4 4 5 5 4 0 3 3 4 5 3 2 5 5 1 1 2 3 3 5 5 5 6 5 5 3 4 2 1 5 3 4 5 3 4 6 5 4 6 7 7 8 7 8 8 7 3 2 4 7 6 7 7 1 5 5 10 15 14 11 8 6
18 19 16 16 18 17 18 19 19 16 14 15 10 8 5 6 6 6 5 4 7 3 3 2 2 2 2 3 1 5 4 3 2 3 4 5 4 2 3 1 2 3 1 6 4 6 5 6 5 4 0 3 1 3 4 3 3 5 3 5 8 5 6 7 9 11 8 8 8 7 3 2 3 7 7 8 9 8 7 10 2 12 14 13 14 10 8
18 19 16 15 16 17 18 19 19 17 15 14 10 7 7 4 5 7 5 5 5 2 2 3 4 5 3 1 1 6 2 1 5 2 3 6 4 5 4 1 5 5 2 6 3 6 6 4 5 5 1 4 3 2 5 4 4 2 0 2 3 3 5 5 8 4 6 5 8 4 5 3 9 10 8 9 8 5 6 5 6 11 12 12 12 11 10
17 18 17 15 13 15 18 18 19 19 16 15 13 8 7 2 5 5 5 5 5 1 5 2 2 5 4 1 6 3 5 7 6 4 3 5 3 5 3 2 5 2 5 5 3 6 5 3 2 4 2 6 4 4 4 6 1 3 2 5 6 6 5 6 5 8 7 5 5 3 6 6 8 9 7 11 8 8 3 6 7 9 11 12 12 10 9
16 17 17 15 14 13 17 18 19 18 17 13 11 6 8 7 3 4 5 5 5 2 4 4 3 3 1 2 1 3 4 6 3 5 4 2 3 5 4 5 5 5 3 3 6 1 5 2 2 1 6 4 2 4 5 3 1 4 2 3 6 5 4 5 4 4 5 4 7 4 2 5 11 11 2 14 6 7 3 6 6 10 11 12 11 10 11
16 16 16 15 13 13 15 18 17 17 17 13 12 7 6 4 3 2 4 4 5 2 5 1 1 6 5 6 6 6 6 8 4 5 4 4 4 3 3 2 4 2 2 1 5 2 2 2 3 4 4 5 5 5 2 4 4 5 5 3 5 6 7 6 4 5 7 6 4 3 3 5 8 9 6 5 7 4 5 5 6 8 9 10 9 9 9
15 16 16 15 14 13 15 17 17 16 16 14 15 7 7 3 4 3 4 4 5 2 5 7 5 6 6 7 6 5 7 6 7 5 6 2 4 4 4 3 1 4 4 5 4 4 5 2 3 4 5 4 2 5 4 5 1 6 2 1 5 6 5 3 4 4 4 3 2 4 3 2 6 7 8 7 6 4 6 6 7 8 8 10 8 9 9
14 15 15 15 14 14 13 16 17 16 15 16 13 5 7 7 6 7 6 5 3 1 5 4 4 4 4 5 5 6 4 4 3 1 3 7 2 3 2 1 3 1 2 1 5 6 6 4 3 5 4 1 4 1 5 7 3 5 4 3 5 3 3 2 6 0 2 3 5 4 4 5 6 7 6 7 6 7 6 8 8 8 8 8 9 11 10
14 15 15 14 12 13 13 15 16 15 14 14 12 7 7 7 8 8 5 6 5 5 4 4 6 4 4 7 5 4 3 5 4 3 2 2 5 3 4 2 2 3 2 3 3 5 5 4 5 3 5 5 2 6 5 5 1 4 3 6 4 4 3 5 5 4 2 2 4 4 4 5 5 5 6 7 8 8 8 8 8 8 9 8 8 9 10
14 14 15 13 12 12 13 15 15 15 13 15 14 9 10 9 4 6 6 4 6 6 4 7 2 7 5 2 4 5 4 1 3 2 3 2 2 6 6 6 5 5 4 2 1 4 3 5 4 5 3 4 5 4 4 6 3 3 6 3 4 5 2 5 6 2 5 3 5 3 4 3 3 3 2 5 7 8 8 7 7 8 8 9 8 8 8
14 14 14 12 11 13 15 15 15 13 13 13 13 7 6 6 6 6 6 6 7 5 5 6 6 5 3 4 4 4 2 1 5 5 5 5 5 6 5 4 4 2 1 1 2 5 2 3 4 4 4 4 3 5 3 5 5 2 6 4 6 5 3 3 2 4 2 5 4 2 2 3 3 5 6 6 6 6 7 7 8 9 10 10 9 8 8
13 13 12 12 11 14 14 14 14 13 12 12 10 7 7 6 4 5 5 5 4 4 4 5 5 6 7 4 4 3 2 1 5 5 6 5 6 6 5 3 4 3 3 3 1 2 2 3 4 2 2 4 3 3 3 3 3 3 5 5 2 3 6 0 3 6 6 3 4 1 5 1 5 5 5 5 6 7 7 7 6 8 9 9 10 9 7
12 12 13 11 11 14 14 13 13 13 11 13 10 8 7 6 3 3 3 4 3 4 3 2 6 5 3 6 4 3 2 1 4 3 4 4 4 4 4 3 2 2 2 2 5 4 4 5 2 3 2 3 4 4 2 2 1 5 7 4 0 2 6 4 4 6 4 3 2 3 4 2 5 1 4 4 5 5 6 6 7 8 8 9 9 8 9
11 12 11 11 9 12 12 13 12 12 12 12 7 8 7 5 3 1 4 3 4 5 5 2 7 5 5 7 5 4 1 1 3 3 5 4 5 5 5 4 3 2 1 1 3 2 2 3 2 3 3 5 4 2 3 5 6 2 6 5 5 6 4 3 4 3 3 4 2 3 3 4 3 3 4 3 3 5 6 7 5 5 7 8 8 7 7
11 11 11 9 9 10 12 12 12 10 11 7 5 5 4 5 2 3 5 5 4 3 3 5 6 5 5 5 6 4 5 4 4 4 3 4 4 4 4 1 2 2 3 3 2 2 2 1 3 3 3 2 4 3 6 3 4 6 5 6 5 4 4 2 3 3 2 2 2 3 2 2 2 2 3 3 3 3 5 6 7 7 6 7 7 6 5
11 11 10 10 9 12 12 12 11 11 10 4 5 5 6 6 5 5 9 6 4 4 4 4 2 4 5 4 3 5 4 4 4 4 4 3 3 2 3 1 2 3 3 2 3 3 2 3 3 4 1 1 3 4 5 4 3 7 4 6 5 3 1 3 2 1 1 2 3 2 3 1 2 2 3 2 1 2 4 5 5 6 6 6 6 5 5
10 10 9 10 12 13 12 12 11 9 5 5 3 3 4 4 4 8 8 7 5 5 5 5 2 5 3 4 3 3 5 5 4 3 4 3 4 1 2 4 1 1 5 2 2 3 1 3 2 3 3 5 3 4 4 4 6 5 7 5 4 3 2 2 1 1 1 1 3 3 3 1 3 2 3 1 4 4 4 5 5 4 3 4 5 5 5
10 10 10 11 12 13 12 12 10 7 4 10 14 13 15 14 11 9 8 6 5 4 4 5 5 3 4 5 7 7 5 5 5 4 3 1 2 4 3 1 3 2 2 4 3 2 2 3 1 4 5 3 4 3 4 5 3 7 5 6 5 4 3 2 1 1 1 1 1 3 2 1 2 1 1 2 2 4 5 5 5 5 3 3 4 4 4
12 10 11 12 13 13 12 12 13 10 7 4 4 5 5 5 7 7 6 5 4 3 3 5 3 6 3 6 6 7 7 6 5 4 4 3 1 4 2 3 3 4 4 5 2 2 3 3 5 3 4 6 5 4 4 1 7 5 5 5 5 5 5 4 3 3 3 2 1 2 3 2 2 1 2 3 1 2 0 3 4 6 5 5 5 5 5
11 11 12 13 13 12 14 13 6 5 4 6 3 4 4 2 4 5 5 4 4 5 4 5 4 5 5 5 6 7 7 6 6 6 5 5 3 3 3 5 3 5 5 2 4 4 3 3 2 4 5 5 4 2 5 2 4 4 5 5 6 5 5 4 4 2 2 1 3 2 3 3 3 2 1 1 2 2 3 3 4 5 5 5 5 6 6
12 13 14 13 14 12 7 6 5 3 5 4 2 4 2 5 4 4 3 4 4 4 5 5 5 6 3 5 6 6 6 8 5 3 4 3 5 3 5 3 6 2 3 3 4 4 5 6 2 5 4 3 4 4 4 2 4 5 5 6 6 6 6 5 2 5 2 3 3 1 2 3 2 1 2 3 2 2 3 3 3 5 4 4 5 5 5
13 14 14 15 9 5 6 4 5 4 1 4 4 4 4 6 3 3 4 4 5 3 5 3 6 6 7 3 5 5 7 7 6 6 5 6 4 4 5 5 5 3 4 6 5 6 4 4 5 6 5 5 4 3 2 3 3 5 6 5 6 6 5 5 4 5 5 5 4 4 4 4 4 2 2 3 3 3 3 3 4 4 5 5 5 4 5
12 12 7 5 6 5 4 4 3 3 3 2 1 3 4 4 4 4 4 6 4 3 6 5 7 5 3 7 3 6 6 4 5 5 4 4 3 3 4 5 0 1 6 4 2 3 3 4 6 7 7 3 2 4 5 5 4 4 5 5 6 6 6 5 6 7 7 6 7 6 5 4 5 4 4 4 3 3 3 3 3 3 3 4 4 5 5
10 6 6 5 4 3 1 4 4 3 4 3 4 3 4 3 3 4 5 5 3 6 6 7 7 6 4 6 5 7 5 2 6 5 5 4 4 4 2 5 3 3 3 5 5 3 7 6 6 6 7 4 6 7 7 7 6 6 6 6 6 7 6 6 6 7 7 4 3 2 4 5 5 3 2 4 5 4 3 3 3 3 3 4 4 4 6
5 6 6 6 3 4 4 5 4 3 4 3 4 4 3 4 5 3 4 3 4 5 4 8 6 4 5 6 3 5 6 6 5 5 5 3 2 4 4 4 3 4 5 8 3 7 6 3 5 5 6 4 4 7 7 8 7 7 7 7 8 8 8 6 6 5 6 2 3 4 2 1 2 4 5 6 6 6 5 5 4 4 4 5 5 5 6
6 5 5 3 2 3 3 3 5 3 3 4 4 3 2 2 5 3 4 6 6 5 5 4 4 6 6 5 4 4 5 3 2 2 2 4 4 4 4 5 3 5 5 6 5 4 5 6 6 5 5 1 6 8 7 8 8 8 7 8 8 8 8 7 7 6 5 3 2 1 3 4 4 5 6 6 6 5 5 5 5 5 6 7 7 7 5
4 3 4 5 3 0 2 3 4 4 3 3 2 2 3 2 3 4 4 5 6 4 6 6 6 7 7 8 6 4 5 4 3 4 5 5 4 5 4 3 3 5 5 1 3 4 5 4 4 6 5 4 8 8 8 8 8 9 9 9 9 8 8 7 8 7 5 4 4 4 3 3 5 5 5 5 5 5 5 6 6 6 6 6 6 7 7
7 6 6 4 3 3 3 3 4 3 1 1 1 1 3 2 6 6 5 5 0 3 4 3 1 3 4 2 3 1 2 5 5 5 5 4 4 3 5 5 4 5 5 2 4 6 6 5 7 7 2 8 8 9 8 8 9 9 10 10 9 9 9 8 8 6 5 4 4 4 3 5 5 5 4 4 4 5 4 4 5 5 6 6 7 7 7
4 4 5 3 3 3 2 1 2 1 1 2 2 3 6 7 7 6 4 4 5 5 5 6 6 6 6 5 4 5 4 4 4 3 5 3 3 5 4 4 8 3 1 5 6 9 7 6 7 2 6 6 7 8 8 9 9 9 10 10 10 9 8 7 6 7 5 3 3 3 3 5 5 4 4 3 3 4 4 4 5 5 6 7 7 7 7
5 4 3 2 0 1 1 1 3 3 3 5 5 6 5 6 4 6 3 4 3 2 5 4 3 5 4 5 4 4 3 2 5 6 5 4 6 5 6 5 3 3 5 7 7 7 6 8 5 5 9 5 5 7 9 9 10 10 10 10 9 8 8 7 7 5 5 5 5 5 5 4 4 4 2 2 2 3 4 5 4 5 6 6 7 7 7
6 3 3 2 1 2 2 1 2 2 5 5 6 6 4 3 2 3 3 3 2 3 4 4 4 4 3 2 2 2 3 4 4 5 4 4 5 6 4 2 2 6 7 7 8 8 9 8 5 5 8 10 9 8 8 8 9 9 11 11 10 9 8 7 7 7 6 6 4 3 4 5 4 4 4 4 4 5 5 6 6 7 7 8 8 8 8
4 2 1 1 2 2 5 3 6 6 3 4 5 2 1 1 1 2 1 0 3 2 2 2 3 1 1 2 4 6 8 5 6 2 4 6 6 1 1 5 7 6 7 9 10 8 7 3 3 3 8 8 8 8 8 9 9 10 10 9 9 8 7 7 7 7 4 2 3 5 4 4 4 3 4 5 5 6 6 6 7 7 8 8 9 9 10
1 1 3 2 3 3 6 7 6 4 3 4 2 2 1 1 4 3 3 2 0 2 3 3 5 5 3 1 2 4 3 5 3 3 3 4 1 3 2 5 7 7 8 8 9 3 8 4 3 7 7 7 8 9 9 9 10 10 10 9 9 9 8 7 5 5 5 6 5 5 5 4 5 5 4 5 6 6 7 6 7 7 8 8 9 9 9
3 0 1 2 3 4 5 3 3 6 4 4 3 3 4 5 3 3 2 2 2 2 1 1 4 2 0 2 3 3 4 4 6 3 4 5 5 5 4 5 8 10 7 4 4 4 7 2 7 7 7 8 8 8 8 8 9 10 10 9 8 7 6 6 7 6 6 5 5 4 4 4 4 4 5 5 6 6 6 6 7 7 7 8 9 9 10
2 2 3 3 5 6 5 3 4 6 3 3 4 5 4 4 3 3 3 3 2 2 2 4 4 3 3 4 3 4 3 3 2 2 8 9 7 4 5 10 9 6 4 8 8 11 6 3 5 7 7 8 8 8 9 9 9 8 8 8 8 7 7 7 7 6 6 4 4 4 4 4 4 5 5 5 5 5 7 8 7 7 8 8 8 9 10
3 4 4 7 7 5 2 6 5 5 5 4 4 4 4 4 3 3 3 3 2 3 5 3 3 1 1 1 2 3 3 2 5 8 6 8 6 8 10 10 2 5 1 2 8 9 4 3 3 5 7 7 8 8 8 9 9 8 8 8 7 6 6 6 6 6 7 6 4 3 3 3 3 3 4 4 5 6 6 7 7 6 6 7 7 8 10
1 3 5 7 7 7 7 6 6 6 4 2 2 2 2 4 2 2 3 4 3 6 3 4 2 2 1 3 4 4 3 3 4 5 9 7 1 3 3 2 5 6 6 6 4 4 6 4 5 5 6 7 7 8 9 9 8 7 7 7 7 6 6 6 5 4 3 3 3 4 4 3 4 3 3 5 6 5 6 5 5 7 7 7 8 9 11
Wind_Direction
341 340 339 338 339 340 341 343 343 346 343 336 0 320 237 235 59 105 166 147 221 241 245 239 230 249 75 154 165 178 189 307 86 292 3 237 244 324 343 14 293 271 297 230 226 239 290 36 268 223 95 65 56 71 335 320 253 252 236 215 72 299 251 251 282 284 115 231 180 178 221 216 243 230 224 218 232 232 241 239 254 269 230 230 226 233 98
341 340 339 339 340 341 341 343 345 345 2 329 305 272 251 253 168 168 143 203 220 244 260 240 200 93 100 263 80 317 31 320 93 340 94 332 42 352 355 138 333 59 289 291 304 351 205 230 281 135 116 104 38 72 341 326 274 300 15 343 54 263 189 271 244 227 269 190 148 212 214 239 246 244 197 235 231 234 244 263 269 259 257 242 232 253 129
341 340 341 341 341 342 341 343 343 347 345 335 298 290 286 240 310 355 149 196 217 238 249 228 237 141 183 189 182 168 158 63 326 343 50 275 3 270 110 342 322 187 305 284 316 223 282 183 52 330 121 103 177 79 327 325 284 33 18 337 329 275 258 238 238 236 220 219 215 213 207 203 224 248 242 211 236 244 236 218 211 234 233 307 270 232 81
343 342 343 344 343 342 342 340 343 343 346 325 261 280 274 234 209 180 171 200 196 262 304 298 201 137 155 225 73 287 129 159 148 274 103 325 30 340 335 133 283 40 236 216 229 200 293 283 144 241 172 121 134 18 312 273 19 36 19 287 252 280 291 255 270 280 274 336 330 295 287 246 222 213 233 248 218 217 264 284 257 246 243 249 248 262 135
344 345 345 347 346 343 343 341 339 344 342 337 287 283 253 298 249 197 204 170 240 212 180 228 282 201 156 345 243 206 17 69 150 346 272 102 324 99 348 7 254 118 276 238 223 272 192 324 224 194 247 147 315 126 305 186 103 125 221 226 257 262 268 236 262 242 253 302 284 316 285 265 224 216 206 239 249 224 240 242 241 268 280 252 311 343 271
344 346 349 350 347 345 344 343 338 339 341 331 264 275 218 241 69 280 6 313 184 201 195 223 194 84 230 109 230 294 199 210 157 165 69 252 154 288 160 259 25 322 307 9 278 282 256 195 225 149 253 219 181 226 229 292 111 214 229 201 235 273 268 233 261 254 270 235 241 227 235 257 276 288 265 225 241 236 231 241 258 255 244 269 353 329 320
345 348 351 352 349 346 347 345 340 337 336 323 248 288 279 280 294 316 94 221 301 3 22 287 272 179 267 91 243 182 264 138 5 345 76 223 113 271 303 256 58 302 156 240 282 343 351 217 78 312 191 242 249 229 241 260 298 268 277 306 26 310 247 280 284 279 259 225 230 219 234 212 242 244 252 257 246 249 250 247 241 246 257 256 280 270 269
346 349 353 353 350 349 349 348 345 339 337 315 240 285 301 300 352 288 178 262 260 198 210 209 232 163 82 247 135 5 237 79 164 145 313 300 141 244 288 131 270 48 124 167 239 122 173 256 153 150 296 216 239 275 274 304 234 270 289 300 113 270 166 233 258 258 240 246 238 249 260 240 225 226 231 240 253 247 242 258 262 274 267 274 244 257 241
346 349 354 354 350 351 351 351 351 340 344 322 316 43 2 325 316 322 294 242 177 219 215 201 231 182 177 230 135 238 175 54 18 48 321 326 21 282 20 66 127 258 50 124 124 92 43 354 19 37 263 348 68 296 75 252 278 268 298 301 346 260 282 210 238 253 233 223 276 254 258 248 243 212 234 312 284 241 222 245 7 333 312 293 278 255 115
347 350 355 354 352 353 353 357 353 350 331 330 349 6 358 312 207 232 284 257 80 253 205 240 220 226 52 2 141 267 115 61 230 154 61 353 327 359 334 11 289 114 244 91 48 14 354 6 353 333 339 288 314 271 304 315 320 323 291 249 270 318 291 258 234 238 255 240 250 261 258 254 238 79 35 349 339 342 28 16 31 2 327 297 246 4 63
347 351 355 355 354 353 355 358 357 357 351 14 347 360 5 1 335 321 259 255 193 244 225 217 247 71 167 200 166 257 112 119 80 310 102 272 107 304 315 272 250 356 78 63 35 328 350 325 331 291 251 261 263 257 228 239 272 329 327 289 288 252 268 272 298 272 268 246 221 229 244 246 177 338 355 22 334 321 64 45 347 22 34 318 336 234 197
345 349 355 357 355 353 353 357 358 359 360 333 312 309 18 339 307 266 264 248 237 238 239 214 295 146 230 171 237 168 152 180 124 216 118 37 47 302 235 132 261 60 52 310 284 316 276 271 264 271 278 276 265 252 264 279 305 207 248 285 306 275 266 266 267 262 252 258 260 246 241 222 96 117 51 350 282 321 40 126 83 15 347 355 357 334 352
344 345 353 356 354 354 352 354 357 356 358 342 317 314 3 348 309 309 300 272 253 229 236 164 167 231 183 153 182 97 42 52 56 32 56 170 122 138 30 24 288 29 302 297 256 254 250 245 211 268 246 242 247 260 255 234 252 260 283 358 301 295 295 287 252 257 262 254 232 243 262 92 129 63 25 21 326 12 294 109 41 58 37 8 345 343 344
341 343 352 354 353 354 353 352 353 353 354 349 319 315 339 355 344 321 310 289 278 238 213 181 200 208 188 162 102 98 184 107 56 307 122 249 132 98 117 23 29 329 286 274 258 250 231 222 213 203 207 225 218 245 232 224 231 266 269 274 278 304 297 270 270 204 257 237 232 223 101 165 26 12 14 7 15 357 349 288 89 28 30 25 10 343 340
340 343 353 354 355 354 353 352 351 351 350 344 307 289 319 359 342 318 314 273 252 267 200 249 176 205 191 120 166 184 187 112 203 138 61 357 203 56 36 70 33 345 87 258 194 203 258 247 218 225 164 209 213 223 140 230 174 245 279 271 248 203 261 20 313 241 248 262 254 209 185 219 334 333 23 347 6 332 302 297 118 29 22 9 19 5 350
338 340 350 352 352 352 351 351 351 348 352 343 318 314 319 14 321 285 293 293 305 286 194 57 88 182 157 177 180 264 236 219 140 129 171 186 21 180 163 239 62 311 229 219 282 260 233 235 238 256 218 225 209 257 204 183 207 150 258 258 276 254 255 258 254 265 256 237 252 248 252 55 169 6 348 1 331 341 345 260 198 27 3 3 2 355 5
336 338 346 351 351 350 349 350 349 349 350 358 332 314 308 39 343 331 318 273 228 230 44 204 297 28 129 145 133 236 209 307 165 248 180 168 133 17 163 183 158 257 302 264 202 239 218 227 252 264 167 56 189 272 45 266 266 178 175 258 272 284 247 225 224 238 246 259 248 258 47 99 41 346 350 351 335 308 268 252 214 354 355 349 356 352 359
335 339 344 350 352 349 347 348 348 346 348 349 332 303 303 349 348 312 274 268 253 161 74 65 236 193 202 31 316 58 312 229 230 197 289 100 223 201 75 327 213 135 231 254 230 236 251 259 242 234 207 99 356 327 259 37 238 295 256 338 273 208 237 220 260 233 240 232 260 130 112 89 346 348 334 345 334 329 256 268 3 337 339 351 353 348 355
335 337 342 348 353 354 347 347 347 347 347 349 330 283 237 281 331 313 294 279 258 202 106 118 43 29 50 44 29 5 7 355 336 270 206 193 128 74 306 310 315 209 178 255 244 255 253 201 350 301 252 139 207 252 81 221 281 38 9 252 235 239 269 273 295 278 270 288 283 80 89 42 321 335 345 357 290 248 299 20 318 330 341 357 357 4 5
336 336 338 346 348 353 347 345 345 345 346 353 343 306 304 307 330 336 326 321 309 133 121 108 268 137 318 339 247 196 168 200 193 294 286 34 115 244 199 197 180 284 198 258 237 348 293 260 81 118 262 152 113 37 253 126 133 309 322 24 293 42 291 290 277 333 289 264 273 173 118 46 1 330 269 25 339 53 6 338 342 355 356 356 354 20 9
335 334 336 342 348 351 350 344 344 343 345 349 343 312 306 139 331 332 301 299 279 212 115 145 93 56 47 58 32 20 358 5 30 301 360 43 41 271 244 16 72 248 319 212 297 107 273 333 158 238 17 339 99 227 269 109 179 128 268 303 296 55 259 277 13 16 288 306 344 27 30 6 18 14 46 47 48 19 10 335 351 5 1 356 343 13 360
331 331 334 337 342 346 346 344 342 342 340 347 336 295 275 3 355 1 319 290 285 309 71 77 45 90 66 46 48 26 11 7 15 346 305 335 133 302 19 236 311 328 10 320 253 194 202 266 338 255 219 187 157 257 34 251 267 115 154 253 241 58 347 7 302 21 334 39 165 103 134 73 60 65 77 74 63 46 1 2 353 359 5 354 357 359 4
329 330 334 334 339 345 347 341 339 339 339 345 343 314 316 333 335 338 301 274 212 86 142 151 130 109 105 82 53 30 46 12 347 16 331 309 159 207 258 284 130 34 294 333 332 335 1 309 306 357 302 354 1 314 170 271 133 221 209 148 19 130 15 14 274 235 96 132 33 136 94 59 86 83 74 68 54 39 11 18 357 17 0 360 2 343 358
329 328 330 333 339 344 345 341 337 337 335 340 336 314 313 329 322 325 294 258 237 156 174 158 194 176 125 98 78 90 81 76 16 11 321 352 306 159 164 70 45 210 91 17 328 325 341 314 357 340 280 57 296 256 266 207 3 80 170 176 166 102 235 237 268 89 285 199 135 116 98 98 69 74 69 68 53 34 20 16 11 5 7 359 5 353 358
327 326 327 332 339 341 343 337 335 334 333 335 332 290 263 262 314 346 316 244 191 194 191 173 186 77 90 71 127 94 57 97 151 175 184 213 304 335 56 68 34 3 70 7 249 255 233 270 197 214 245 35 282 291 61 295 118 313 281 96 167 151 70 261 246 228 262 58 117 75 81 73 51 45 53 48 48 29 21 15 10 5 10 1 352 353 11
325 324 326 331 338 340 336 333 332 332 331 333 322 307 316 333 338 311 278 259 268 247 209 196 140 176 141 176 96 53 343 290 83 70 50 58 47 75 98 106 87 2 29 252 245 275 273 227 284 309 302 127 324 283 30 5 5 41 292 44 44 70 254 286 42 272 96 136 165 138 145 168 128 67 43 20 16 19 6 12 2 10 10 5 3 357 7
323 323 325 328 338 336 331 330 330 331 329 329 317 297 293 298 328 341 351 353 309 191 238 183 138 158 206 123 101 165 255 227 123 128 131 120 118 112 105 110 133 179 202 170 317 303 233 315 289 3 49 44 294 326 342 227 271 262 248 113 153 247 250 218 213 246 248 4 86 64 242 149 36 353 18 18 5 2 347 338 1 1 2 3 3 355 1
321 322 324 327 330 331 327 325 328 332 333 326 298 278 268 283 320 1 342 332 307 307 331 140 163 128 102 129 165 152 167 197 95 98 99 99 82 87 96 109 256 179 159 233 198 188 230 242 101 83 237 92 250 196 183 332 301 250 253 114 84 279 12 323 295 334 31 95 71 27 339 248 149 244 16 356 343 327 330 335 351 358 350 348 356 355 354
318 318 321 319 318 324 326 321 326 331 336 317 289 284 259 249 258 71 15 323 303 302 292 250 88 164 206 118 188 147 192 121 119 101 95 90 87 80 65 29 9 52 155 253 352 332 328 42 34 348 37 29 302 212 181 215 213 234 70 75 67 60 26 7 355 311 146 66 49 360 354 335 9 349 22 1 26 328 321 332 336 7 346 352 345 360 346
312 317 313 315 314 317 321 320 322 331 336 316 281 258 237 155 93 35 23 336 313 315 284 204 181 118 86 158 183 145 161 166 128 121 94 86 70 68 76 133 114 348 342 340 305 240 68 70 93 92 82 25 283 342 265 257 254 108 145 93 94 99 94 27 35 315 360 23 1 4 330 326 332 329 345 14 35 357 328 324 336 346 342 340 337 345 343
307 307 310 311 314 318 316 316 318 327 306 287 279 245 214 176 109 38 17 335 330 290 281 268 206 117 181 82 194 183 159 141 145 120 92 83 93 108 116 162 74 279 229 176 248 51 214 183 146 110 131 70 306 264 288 285 241 128 117 109 101 129 131 99 69 9 5 353 343 328 282 290 317 267 174 74 336 336 322 323 350 332 341 317 315 322 356
302 302 301 312 313 313 311 307 312 317 288 266 302 328 13 1 358 332 324 301 307 256 240 232 145 199 156 183 205 202 174 161 149 159 152 199 132 150 137 300 50 2 337 338 54 221 223 41 241 137 198 126 239 271 267 255 275 113 140 124 136 113 132 155 142 125 45 342 310 270 242 197 54 14 56 349 348 357 326 330 339 330 300 303 317 326 347
300 301 296 303 310 306 304 300 295 302 295 319 308 275 277 280 284 281 294 299 257 241 266 264 233 165 212 139 156 214 185 192 197 198 154 271 174 237 166 228 147 153 62 278 181 251 105 231 162 200 114 144 231 239 250 262 55 116 133 130 146 149 156 143 166 81 11 17 333 322 341 95 124 82 18 20 27 5 2 349 356 320 337 338 0 357 353
295 293 297 299 303 303 298 301 290 270 251 264 233 183 148 197 244 227 305 293 267 245 232 245 216 208 161 114 211 163 200 207 197 196 201 193 163 238 182 201 195 232 162 271 86 236 165 258 232 145 140 204 228 264 261 229 110 142 138 153 148 161 163 162 181 200 177 146 47 21 74 115 123 85 54 82 64 83 300 19 339 354 353 15 12 9 357
293 289 295 301 298 300 298 287 262 203 216 226 181 95 86 77 336 304 295 304 228 188 210 233 264 229 186 180 226 166 193 226 213 184 248 131 195 248 195 236 150 243 131 280 248 248 212 211 20 241 226 143 182 218 253 190 156 157 166 165 164 176 173 181 190 208 141 96 211 172 190 172 213 196 109 28 41 14 352 348 14 339 354 358 11 356 6
291 294 298 299 299 287 266 216 240 223 230 253 82 96 89 294 259 256 274 272 283 278 213 204 209 235 220 216 206 135 168 217 236 164 225 137 193 196 261 257 235 156 68 231 248 193 238 119 217 246 143 192 212 219 224 191 168 181 189 184 171 196 187 218 164 169 185 210 231 150 255 244 233 199 250 230 247 324 317 331 354 349 338 341 348 351 344
290 296 295 286 271 215 227 205 175 224 349 32 17 351 298 277 222 241 218 231 205 222 278 276 230 220 215 238 99 138 188 204 172 210 179 207 210 186 215 212 252 110 219 224 236 237 118 116 257 269 231 230 238 175 131 166 199 193 193 183 172 191 189 213 167 168 185 198 222 241 237 240 216 211 268 303 325 311 315 344 351 336 341 335 332 334 343
296 298 282 232 210 217 189 181 135 77 81 43 354 243 183 215 198 179 189 219 171 206 229 240 255 256 194 251 173 122 211 207 167 211 198 215 224 196 210 247 135 206 246 226 183 95 137 214 228 245 251 237 118 157 178 188 197 191 185 186 179 192 190 200 179 188 195 206 220 228 241 262 282 255 262 283 301 312 335 330 317 321 332 335 330 331 321
280 253 226 228 226 216 31 97 73 56 282 181 225 250 183 191 200 200 200 184 160 222 212 229 225 221 230 225 143 180 278 260 197 199 222 163 237 181 215 246 152 245 259 245 162 181 242 221 223 229 253 194 203 184 179 193 192 179 184 179 178 185 187 199 198 205 212 240 317 281 240 253 263 298 319 285 281 288 303 302 309 319 325 316 320 334 319
220 219 206 193 217 87 108 123 133 206 215 226 200 243 192 182 220 203 169 202 212 224 189 221 227 227 225 253 196 186 174 221 218 220 211 167 163 268 141 246 148 250 246 253 181 168 255 261 239 236 245 215 191 146 175 179 181 177 176 179 176 181 180 190 188 208 229 186 145 208 205 279 303 289 279 280 286 290 300 306 314 314 302 297 310 303 295
209 226 215 184 80 115 131 147 192 214 226 218 193 194 243 211 217 187 209 214 221 195 198 234 173 202 200 231 228 219 141 265 279 308 252 222 114 263 224 244 85 260 262 260 133 216 229 247 258 257 272 102 140 152 166 173 180 176 173 174 175 175 176 177 182 182 217 209 218 265 275 269 277 279 286 301 302 296 296 301 303 301 300 297 295 293 303
355 319 341 322 300 196 179 201 215 210 221 238 247 212 214 230 199 197 234 231 211 180 179 199 200 219 198 196 214 195 153 209 259 232 220 213 154 238 246 223 172 249 253 28 116 210 232 243 238 244 247 154 145 158 170 179 173 174 169 172 170 173 174 176 183 187 198 211 217 222 236 254 273 280 283 280 291 298 299 296 296 296 296 298 295 287 282
276 253 269 255 198 185 208 210 182 235 194 189 192 292 239 211 218 221 199 225 232 249 133 206 275 57 47 212 166 24 56 154 222 201 226 219 118 229 250 230 229 234 257 123 222 244 240 244 238 248 196 146 159 170 180 179 172 171 167 168 167 175 176 179 189 190 193 223 241 239 244 261 274 280 278 277 275 276 282 286 295 303 304 305 304 305 302
247 243 225 193 185 150 215 235 200 83 14 234 187 212 208 218 202 190 221 197 177 208 158 202 182 216 193 173 226 159 166 188 253 245 233 153 215 209 222 235 230 248 350 247 242 245 248 237 243 241 105 138 158 173 177 174 168 167 168 172 172 173 182 192 175 182 191 197 226 254 273 273 273 271 265 259 275 295 305 314 310 311 313 310 302 301 303
194 194 192 185 146 125 76 328 236 182 213 207 236 250 205 222 182 203 213 115 221 160 154 191 182 213 228 139 219 187 227 231 139 240 219 188 229 228 234 245 253 234 236 249 239 246 242 242 211 170 141 166 187 180 171 170 167 172 169 170 170 174 179 182 184 181 193 195 228 233 248 245 240 247 245 276 292 300 295 291 301 300 299 304 307 303 302
202 171 166 137 347 269 225 233 165 231 242 225 214 224 256 327 335 110 98 193 162 151 204 170 169 202 237 60 253 358 276 194 186 221 226 206 240 237 244 266 255 256 244 247 249 246 244 242 230 232 176 167 181 170 168 165 170 167 170 174 176 184 192 188 182 199 204 213 219 223 235 227 221 235 238 257 268 272 276 298 310 311 309 299 294 299 304
228 182 254 273 258 215 213 230 213 223 253 219 227 249 344 71 30 35 81 282 178 170 141 213 213 256 144 151 251 182 213 216 242 185 178 235 228 177 310 256 241 225 237 242 241 241 242 202 193 111 122 136 149 157 159 164 169 171 175 174 175 180 183 193 198 219 235 201 207 209 213 224 234 240 251 257 275 290 298 297 292 293 296 301 305 302 299
199 253 250 214 231 205 215 226 246 254 230 255 220 157 98 197 202 184 164 233 326 209 189 181 219 151 196 80 191 280 5 342 279 284 270 269 272 253 237 238 239 239 242 245 250 305 334 293 156 127 134 138 148 153 159 166 169 172 167 168 169 182 195 202 197 199 189 187 200 202 216 206 224 238 261 284 284 284 288 294 295 298 300 300 298 296 294
324 238 216 232 251 244 238 219 230 246 200 198 208 205 180 209 197 158 167 234 213 235 189 283 79 30 219 84 269 247 223 181 237 226 205 224 235 218 209 239 242 247 240 267 292 143 218 151 114 134 137 143 146 154 157 164 162 169 167 168 172 181 183 186 181 175 177 189 192 199 208 224 250 250 254 263 274 277 292 297 298 291 284 288 291 296 296
223 234 260 258 251 237 241 298 260 247 178 202 213 218 196 213 196 163 162 219 209 250 252 143 135 270 250 206 229 217 238 146 190 234 231 222 229 250 256 252 252 269 11 9 336 326 333 118 136 129 141 139 146 149 158 157 158 167 166 166 165 174 179 177 168 168 179 183 197 203 216 226 244 273 298 301 300 313 300 287 290 295 296 293 294 292 292
246 270 257 260 266 309 308 225 213 224 205 202 214 212 204 216 218 178 150 248 210 227 231 245 76 82 294 272 258 256 238 190 241 231 225 243 228 228 233 247 263 64 112 30 29 333 311 100 123 130 131 139 144 151 149 145 153 157 161 152 159 156 164 169 171 178 182 189 195 233 244 250 266 270 260 262 269 274 285 284 282 293 315 319 311 302 294
217 232 242 233 240 249 264 308 318 294 316 8 215 182 202 233 180 127 128 255 213 248 228 113 220 191 180 235 245 269 309 244 239 253 262 273 319 270 289 60 68 56 47 20 16 309 321 5 72 108 128 134 140 141 140 145 148 157 145 146 155 154 164 169 172 176 182 184 203 205 220 231 254 263 289 282 279 284 284 298 349 346 328 311 312 307 302